Regional Weather Roundup
Issued by NWS

Home | Current Version | Previous Version | Graphics & Text | Print | Product List | Glossary On
Versions: 1 2 3 4 5 6 7 8 9 10 11 12 13 14 15 16 17 18 19 20 21 22 23 24 25 26 27 28 29 30 31 32 33 34 35 36 37 38 39 40 41 42 43 44 45 46 47 48 49 50
000
ASUS45 KBOU 272307
RWRCO

WEATHER ROUNDUP FOR COLORADO
NATIONAL WEATHER SERVICE DENVER/BOULDER CO
500 PM MDT WED MAY 27 2015

NOTE: "FAIR" INDICATES FEW OR NO CLOUDS BELOW 12000 FEET WITH NO
SIGNIFICANT WEATHER AND/OR OBSTRUCTIONS TO VISIBILITY.

COZ001>005-013-030-031-280000-
...NORTHWEST COLORADO...

CITY           SKY/WX    TMP DP  RH WIND       PRES   REMARKS
CRAIG          CLOUDY    65  41  41 VRB5      30.10F
HAYDEN         CLOUDY    57  43  58 E13       30.12F
MEEKER         PTSUNNY   61  44  53 S3        30.11F
MOUNT WERNER   NOT AVBL
STEAMBOAT SPGS CLOUDY    55  42  63 SE3       30.16S
WALDEN         PTSUNNY   54  36  50 SW23      30.19R
$$

COZ006>008-011-280000-
...WEST CENTRAL VALLEYS...

CITY           SKY/WX    TMP DP  RH WIND       PRES   REMARKS
GRAND JUNCTION PTSUNNY   72  42  34 S10       30.00F
MONTROSE       CLOUDY    71  36  27 W7        30.10R
EAGLE          PTSUNNY   64  37  36 CALM      30.15F
RIFLE          PTSUNNY   67  44  43 SE12      30.04F
DELTA          CLOUDY    77  35  21 W9G18     30.03F THUNDER
NUCLA          CLOUDY    68  36  30 N6        30.12F
$$

COZ017>023-064>068-280000-
...SOUTHWEST COLORADO...

CITY           SKY/WX    TMP DP  RH WIND       PRES   REMARKS
DURANGO        PTSUNNY   71  24  17 W7        30.12F
CORTEZ         SUNNY     74  33  22 SW12      30.08F
PAGOSA SPRINGS PTSUNNY   67  27  21 SW17      30.18F
TELLURIDE      CLOUDY    52  37  56 W7        30.30R THUNDER
WOLF CREEK PAS NOT AVBL
$$

COZ009-010-012-014-032>034-037-058>063-280000-
...CENTRAL COLORADO...

CITY           SKY/WX    TMP DP  RH WIND       PRES   REMARKS
ASPEN          CLOUDY    61  39  44 N10       30.17F
BUENA VISTA    CLOUDY    60  30  32 SE14      30.19S
COPPER MTN     PTSUNNY   45  32  61 W20G25    30.40F
BERTHOUD PASS  FAIR      34  28  80 W9G21     30.44S WCI  26
COTTONWOOD PAS CLOUDY    54  32  43 SE16      30.28F
GUNNISON       CLOUDY    55  37  50 E16       30.22R
KREMMLING      PTSUNNY   66  32  28 SW17G26   30.16S
LEADVILLE      CLOUDY    54  28  36 NW10      30.26F
SALIDA         CLOUDY    59  39  47 SE12G21   30.27R
SUNLIGHT       CLOUDY    45  36  70 CALM      30.36R THUNDER
WILKERSON PASS PTSUNNY   46  32  57 SW7       30.38S
$$

COZ069>075-280000-
...SAN LUIS VALLEY/SANGRE DE CRISTO MOUNTAINS...

CITY           SKY/WX    TMP DP  RH WIND       PRES   REMARKS
ALAMOSA        PTSUNNY   70  28  21 W23G29    30.14F
LA VETA PASS   PTSUNNY  N/A N/A N/A MISG      30.30S THUNDER
SAGUACHE       PTSUNNY   59  41  51 N17G26    30.19F
$$

COZ035-036-038>040-280000-
...NORTHERN COLORADO FRONT RANGE...

CITY           SKY/WX    TMP DP  RH WIND       PRES   REMARKS
DENVER INTL AP PTSUNNY   74  41  30 NE5       30.00F
DMNS CITY PARK   N/A     75  39  27 E3        29.99S
AURORA         PTSUNNY   72  45  37 SE13      30.03S
FRONT RANGE AP PTSUNNY   75  45  33 E6        30.02F
ERIE MUNI ARPT   N/A     75  39  26 E3        29.99S
BOULDER MUN AP MOSUNNY   73  41  31 CALM      29.99F
CENTENNIAL     PTSUNNY   69  45  41 E14       30.03S
BROOMFIELD     PTSUNNY   73  39  29 CALM      30.03S
FORT COLLINS   MOSUNNY   73  45  35 SE5       29.98S
LONGMONT       MOSUNNY   80  42  26 N5        30.00F
$$

COZ041-046-047-076>085-087-088-280000-
...PIKES PEAK/PALMER DIVIDE AND SOUTHERN FOOTHILLS...

CITY           SKY/WX    TMP DP  RH WIND       PRES   REMARKS
COLO. SPRINGS  PTSUNNY   74  33  22 W18G28    30.04F
A. F. ACADEMY  PTSUNNY   70  36  28 SW18      30.05F
ELLICOTT       NOT AVBL
FALCON         PTSUNNY   72  34  24 S15G22    30.10S
FORT CARSON    NOT AVBL
LIMON          PTSUNNY   65  48  54 E15G23    30.04F
MONUMENT HILL  PTSUNNY   63  43  48 NW5       30.11F
TRINIDAD       TSTM      60  45  57 N6G24     30.09F
$$

COZ042>045-048>051-090-091-280000-
...NORTHEAST COLORADO...

CITY           SKY/WX    TMP DP  RH WIND       PRES   REMARKS
GREELEY ARPT   SUNNY     79  43  27 S7        29.98S
AKRON          MOSUNNY   75  44  33 S14       29.99F
BURLINGTON     MOSUNNY   79  45  29 SW17      29.99F
WRAY           CLOUDY    77  54  44 N7G24     29.96S
STERLING       SUNNY     72  55  56 NE13      29.97R
HOLYOKE        CLOUDY    66  55  68 SE17G24   29.98F
FORT MORGAN    SUNNY     77  40  26 SE7       29.99S
$$

COZ086-089-092>099-280000-
...SOUTHEAST COLORADO...

CITY           SKY/WX    TMP DP  RH WIND       PRES   REMARKS
PUEBLO         TSTM      61  49  64 S14G21    30.01R
LA JUNTA       PTSUNNY   79  45  29 S15       29.96S
LAMAR          PTSUNNY   76  50  40 S20G30    29.95S
SPRINGFIELD      N/A     61  53  75 N14       30.04R
$$


USA.gov is the U.S. government's official web portal to all federal, state and local government web resources and services.